GSAT-18

Last updated on Sun Jun 21 2026 00:03:07 GMT+0000 (Coordinated Universal Time)

1 41793U 16060A 26171.40667204 -.00000081 00000+0 00000+0 0 9991 2 41793 0.0673 95.4136 0005591 339.0481 54.5283 1.00271371 35566
UTC large
Height (km)
Speed (km/s)
/
Latitude / Longitude
Inclination (degrees)
Orbital Period (minutes)
Azimuth
Elevation
Range (km)
Doppler Factor

Next 0 passes for location: London (51.5072 / 0.1276)

No passes found over London.
GSAT-18